Location: Auckland
(36.8670°S, 174.7670°E)
Time: 21:34:38
(UTC+12:00)

Courier 1B Rocket - Pass Details

Date: 25 July 2019
Orbit: 920 x 1202 km, 28.3° (Epoch: 20 August)

Event Time Altitude Azimuth Distance (km) Brightness Sun altitude
Rises 09:30:46 0° 281° (WNW) 3,938 7.9 19.7°
Reaches altitude 10° 09:36:27 10° 316° (NW) 2,888 7.6 20.5°
Maximum altitude 09:37:57 11° 328° (NNW) 2,809 7.7 20.7°
Drops below altitude 10° 09:39:27 10° 341° (NNW) 2,838 7.9 20.9°
Sets 09:44:49 0° 17° (NNE) 3,699 9.1 21.6°
